Regional Weather Roundup
Issued by NWS

Home | Current Version | Previous Version | Text Only | Print | Product List | Glossary Off
Versions: 1 2 3 4 5 6 7 8 9 10 11 12 13 14 15 16 17 18 19 20 21 22 23 24 25 26 27 28 29 30 31 32 33 34 35 36 37 38 39 40 41 42 43 44 45 46 47 48 49 50

000
ASUS43 KMPX 061510
RWRMN
WEATHER ROUNDUP FOR MINNESOTA
NATIONAL WEATHER SERVICE TWIN CITIES/CHANHASSEN MN
1000 AM CDT MON JUL 06 2015


NOTE: "FAIR" INDICATES FEW OR NO CLOUDS BELOW 12,000 FEET WITH NO
SIGNIFICANT WEATHER AND/OR OBSTRUCTIONS TO VISIBILITY. N/A MEANS
CURRENT SKY AND/OR WEATHER CONDITIONS ARE NOT AVAILABLE.

MNZ060>063-068>070-061600-
   Twin Cities Metro

CITY           SKY/WX    TMP DP  RH WIND       PRES   REMARKS
TWIN CITIES    CLOUDY    72  69  90 NW6       29.80R
ST PAUL        CLOUDY    72  70  93 CALM      29.80R
CRYSTAL        CLOUDY    73  69  87 NW6       29.79R
BLAINE         CLOUDY    72  72 100 NW8       29.81R
LAKEVILLE      CLOUDY    72  70  94 SW6       29.81R
EDEN PRAIRIE   LGT RAIN  72  69  90 W6        29.80R
SOUTH ST PAUL  CLOUDY    73  70  92 SW3       29.80R
LAKE ELMO      CLOUDY    72  70  94 CALM      29.82R
$$
MNZ001>005-007-008-013>017-022>024-027-028-061600-
   Northwest Minnesota

CITY           SKY/WX    TMP DP  RH WIND       PRES   REMARKS
BEMIDJI        PTSUNNY   59  49  69 N16G24    30.00R
HALLOCK        PTSUNNY   59  50  72 N13       30.09F
ROSEAU         PTSUNNY   54  46  76 NW12      30.06F
WARROAD        PTSUNNY   54  45  71 NW15G23   30.05F
THIEF RVR FALL PTSUNNY   57  45  62 N14       30.07R
CROOKSTON      CLOUDY    57  48  72 N16       30.08R
FOSSTON        MOSUNNY   57  48  72 N14G24    30.05R
DETROIT LAKES  MOSUNNY   61  50  67 N15G25    30.02R
MOORHEAD       MOSUNNY   63  52  67 N20       30.04R
PARK RAPIDS    CLOUDY    61  56  83 N14       29.97R HAZE
MAHNOMEN       FAIR      60  47  63 N15G25    30.03R
$$
MNZ006-009>011-018-025>026-061600-
   North Central Minnesota

CITY           SKY/WX    TMP DP  RH WIND       PRES   REMARKS
BAUDETTE       MOSUNNY   57  44  62 N18G30    30.01R
FLAG ISLAND    PTSUNNY   54  45  71 NW21      30.04R
INTL FALLS     PTSUNNY   60  50  69 N13       29.96S
WASKISH        MOSUNNY   59  46  63 N9G17     30.00S
BIG FORK       CLOUDY    57  52  82 N8        29.96F
LONGVILLE      CLOUDY    63  57  82 N8        29.94R FOG
GRAND RAPIDS   CLOUDY    61  55  82 N14       29.93S
CRANE LAKE     CLOUDY    57  54  88 N6        29.95S
COOK           CLOUDY    59  57  94 N3        29.92S FOG
WALKER         CLOUDY    57  54  87 N10G16    29.97S FOG
$$
MNZ012-019>021-037-061600-
   Northeast Minnesota

CITY           SKY/WX    TMP DP  RH WIND       PRES   REMARKS
DULUTH         LGT RAIN  62  59  90 N6        29.89R FOG
ELY            CLOUDY    59  55  88 N5        29.91S FOG
HIBBING        LGT RAIN  61  58  90 N7        29.91S FOG
DULUTH HARBOR  RAIN      61  59  94 NE10      29.88S
TWO HARBORS    CLOUDY    64  61  88 VRB2      29.86F
SILVER BAY     LGT RAIN  64  61  88 N3        29.86F
GRAND MARAIS     N/A     60  58  92 CALM      29.86F
G MARAIS ARPRT RAIN      59  55  88 N3        29.90F
$$
MNZ029>031-032-039>041-046>048-054>057-064-061600-
   West Central Minnesota

CITY           SKY/WX    TMP DP  RH WIND       PRES   REMARKS
FERGUS FALLS   PTSUNNY   63  54  72 N14G23    29.98R HAZE
WHEATON          N/A     61  57  88 NW15G26   30.00R FOG
MORRIS         CLOUDY    66  64  94 N12       29.94R FOG
ALEXANDRIA     CLOUDY    65  61  87 N13G23    29.95R FOG
ELBOW LAKE     FAIR      64  60  89 N14       29.96S FOG
WADENA           N/A     63  57  82 N12       29.95R HAZE
GLENWOOD       CLOUDY    64  63  94 N12G17    29.94R FOG
APPLETON       CLOUDY    66  63  88 N18       29.93R FOG
BENSON         DRIZZLE   66  63  88 NE12      29.93R
ORTONVILLE     CLOUDY    64  61  88 N16G23    29.96R FOG
MADISON          N/A     64  63  94 N15G23    29.95R FOG
WILLMAR        LGT RAIN  66  61  82 N14       29.92R
$$
MNZ033>034-036-042>043-049>051-058-059-061600-
   Central Minnesota

CITY           SKY/WX    TMP DP  RH WIND       PRES   REMARKS
ST CLOUD       CLOUDY    65  60  84 N10G17    29.87R HAZE
SAUK CENTRE    LGT RAIN  64  61  89 N10G17    29.93R
PAYNESVILLE    LGT RAIN  61  57  87 NW8       29.91R
AITKIN         CLOUDY    64  57  77 N15G21    29.89S HAZE
PINE RIVER       N/A     63  59  88 N12G20    29.95S FOG
BRAINERD       LGT RAIN  64  60  87 N14       29.92R FOG
STAPLES        CLOUDY    63  61  94 N9        29.94R FOG
LONG PRAIRIE   DRIZZLE   63  61  94 NW9G16    29.93R
LITTLE FALLS   LGT RAIN  63  59  88 NW6       29.91R
LITCHFIELD     CLOUDY    64  64 100 N13       29.89R FOG
BUFFALO        CLOUDY    66  63  89 N14G21    29.85R
MAPLE LAKE     CLOUDY    66  65  96 N12G18    29.86R FOG
$$
MNZ037-044-045-052-053-061600-
   East Central Minnesota

CITY           SKY/WX    TMP DP  RH WIND       PRES   REMARKS
PRINCETON      DRIZZLE   64  63  94 N13       29.86R
MORA           DRIZZLE   57  55  94 N7        29.87R
CAMBRIDGE      RAIN      66  57  72 N8G17     29.82R
MOOSE LAKE     LGT RAIN  61  59  94 CALM      29.86S
HINCKLEY       DRIZZLE   63  61  94 N12G20    29.85R
CLOQUET        LGT RAIN  61  59  94 N3        29.89R
MCGREGOR       CLOUDY    63  61  94 N10       29.90S
$$
MNZ071>073-080-081-089-090-097-098-061600-
   Southwest Minnesota

CITY           SKY/WX    TMP DP  RH WIND       PRES   REMARKS
MONTEVIDEO     DRIZZLE   66  66 100 N12       29.93R
GRANITE FALLS  LGT RAIN  67  64  89 NW10G17   29.93R
CANBY          CLOUDY    65  63  93 NW12G17   29.97R FOG
MARSHALL       CLOUDY    66  61  82 N14       29.92R
REDWOOD FALLS  CLOUDY    67  60  78 N13       29.89R HAZE
OLIVIA         CLOUDY    64  59  82 N9G18     29.89R HAZE
PIPESTONE      LGT RAIN  66  63  88 N13G18    29.95R
WINDOM         CLOUDY    70  66  88 NW17      29.88R
WORTHINGTON    CLOUDY    68  64  88 N13       29.90R
JACKSON        LGT RAIN  70  70 100 W14       29.88R
TRACY          CLOUDY    67  63  87 N15G23    29.92R FOG
SLAYTON        CLOUDY    65  65 100 N17       29.93R FOG
$$
MNZ065>067-074>077-082>085-091>093-061600-
   South Central Minnesota

CITY           SKY/WX    TMP DP  RH WIND       PRES   REMARKS
MANKATO        CLOUDY    72  68  88 W5        29.82R
NEW ULM        LGT RAIN  70  70 100 N15       29.83R
ST JAMES       HVY RAIN  72  72 100 W14G21    29.85R
FAIRMONT       CLOUDY    72  64  78 S8        29.86R
GLENCOE        DRIZZLE   68  67  98 N13G18    29.84R
FARIBAULT      CLOUDY    72  72 100 SW3       29.83R
OWATONNA       RAIN      72  70  94 SW9       29.85R
WASECA         RAIN      72  70  94 SW6       29.85R
ALBERT LEA     LGT RAIN  70  70 100 S10       29.85R
$$
MNZ078>079-086>088-094>096-061600-
   Southeast Minnesota

CITY           SKY/WX    TMP DP  RH WIND       PRES   REMARKS
ROCHESTER      CLOUDY    72  69  90 S13       29.85R
RED WING       CLOUDY    73  72  94 SE5       29.79R
STANTON        CLOUDY    73  70  88 SW8       29.80R
DODGE CENTER   LGT RAIN  72  68  88 SW16G22   29.85R
WINONA         LGT RAIN  73  72  94 CALM      29.84R
AUSTIN         CLOUDY    73  70  88 S15       29.89R
PRESTON        LGT RAIN  70  68  93 S10G16    29.88S
$$
ABBREVIATIONS USED IN REMARKS
   TC - TEMPERATURES IN CELSIUS
  WCI - WIND CHILL INDEX
   HX - HEAT INDEX
  VSB - VISIBILITY
$$


USA.gov is the U.S. government's official web portal to all federal, state and local government web resources and services.